Other Surface Observations
Issued by NWS

Home | Current Version | Previous Version | Text Only | Print | Product List | Glossary On
Versions: 1 2 3 4 5 6 7 8 9 10 11 12 13 14 15 16 17 18 19 20 21 22 23 24 25 26 27 28 29 30 31 32 33 34 35 36 37 38 39 40 41 42 43 44 45 46 47 48 49 50
000
SXUS52 KTAE 281218
OSOTAE
OSOTAE
North Florida/South Alabama/Southwest Georgia Weather Roundup
National Weather Service Tallahassee Florida
800 AM EDT THU MAY 28 2015

Note: "fair" indicates few or no clouds below 12,000 feet with no
significant weather and/or obstructions to visibility.

!FLZ017-115-028-034-025-281300
...North Florida...

CITY           SKY/WX    TMP DP  RH WIND       PRES   REMARKS
TALLAHASSEE    PTSUNNY   72  67  84 E9        30.16R
APALACHICOLA   PTSUNNY   82  72  71 SE10      30.14R
PERRY          SUNNY     71  68  91 E3        30.17R
CROSS CITY       N/A     72  67  84 CALM      30.15R
JACKSONVILLE   MOSUNNY   71  68  90 CALM      30.18R
$$

!FLZ112-006-005-002-011-281300
...Florida Panhandle...

CITY           SKY/WX    TMP DP  RH WIND       PRES   REMARKS
MARIANNA       MOSUNNY   71  71 100 CALM      30.15R
BONIFAY        FAIR      71  69  93 NE3       30.16R
PANAMA CITY NW FAIR      72  69  90 NE6       30.13R
TYNDALL AFB    MOSUNNY   72  71  98 NE5       30.13R
TYND DRONE APT FAIR      72  71  98 NE5       30.13R
DE FUNIAK SPR  FAIR      69  68  98 MISG      30.16R
EGLIN AFB      PTSUNNY   72  69  91 N3        30.14R
DESTIN         MOSUNNY   74  70  87 E3        30.14R
HURLBURT       MOSUNNY   73  69  88 NE6       30.12S
CRESTVIEW      PTSUNNY   70  69  97 E3        30.16R
PENSACOLA      PTSUNNY   72  70  93 N8        30.13R
$$

!ALZ063-066-281300
...South Alabama...

CITY           SKY/WX    TMP DP  RH WIND       PRES   REMARKS
DOTHAN         MOSUNNY   70  68  93 E6        30.20R
OZARK CAIRNS   MOSUNNY   69  69  98 E5        30.16R
FT RUCKER HELI MOSUNNY   70  67  90 NE3       30.15R
RUCKER HELI 3  FAIR      69  67  94 NE3       30.18R
RUCKER HELI 2  FAIR      69  69 100 E6        30.15R
FLORALA APT    PTSUNNY   70  68  94 NE3       30.17S
ANDALUSIA      CLOUDY    72  66  81 CALM      30.16R
TROY           PTSUNNY   71  68  90 E5        30.18R
EUFALA         FAIR      72  69  90 CALM      30.17R
MOBILE         CLOUDY    73  72  96 N3        30.14R FOG
$$

!GAZ120>161-281300
...Southwest and South Central Georgia...

CITY           SKY/WX    TMP DP  RH WIND       PRES   REMARKS
THOMASVILLE    FAIR      70  68  94 SE3       30.19R FOG
BAINBRIDGE     MOSUNNY   73  72  94 E5        30.16S
MOODY AFB      MOSUNNY   69  65  88 E5        30.17R
VALDOSTA       SUNNY     70  67  90 E5        30.18R
MOULTRIE       SUNNY     70  66  88 E3        30.19R
BLAKELY        SUNNY     72  72 100 CALM      30.17S
ALBANY         MOSUNNY   71  67  87 E5        30.19R
TIFTON           N/A     68  67  94 CALM      30.19R
FITZGERALD     FAIR      71  68  91 CALM      30.22R
CORDELE        FAIR      71  69  95 CALM      30.21R
AMERICUS       FAIR      70  70 100 E6        30.21R
HOMERVILLE     FAIR      70  68  94 CALM      30.19R
$$

!GMZ750-755-770-775-281300
...Coastal and Buoy Obs...

STATION/POSITION TIME  TEMP    WIND        PRES    VSBY  WAVE
                       AIR SEA DIR/SP/G                  HT/PER
                 (UTC) (F)     (DEG/KT/KT) (MB)    (MI)  (FT/S)
KEATON BEACH     1200   71      80/  8/  9 1021.2R
CEDAR KEY        1200   74      80/  7/  9 1021.2R
C TOWER          1200   79     140/ 13/ 14 1020.1R
APALACHICOLA BUO 1150   80 81  140/ 12/ 14 1019.8R         2/ 3
PANAMA CITY BUOY 1150   80 81  110/ 12/ 14 1019.7R         3/ 6
MOBILE BUOY      1150   79 79  170/  8/ 10 1019.6R         3/ 6
ORANGE BCH AL BU 1150   80 80  110/  4/  6 1019.1R         3/ 7
$$



USA.gov is the U.S. government's official web portal to all federal, state and local government web resources and services.